Time,TemperatureF,DewpointF,PressureIn,WindDirection,WindDirectionDegrees,WindSpeedMPH,WindSpeedGustMPH,Humidity,HourlyPrecipIn,Conditions,Clouds,dailyrainin,SoftwareType,DateUTC
2013-01-19 00:13:00,35.0,-99.9,30.02,SSW,210,28.0,-999.0,-999,-99.99,,,-99.99,,2013-01-19 05:13:00,
2013-01-19 00:23:00,35.0,-99.9,30.02,SSW,210,28.0,-999.0,-999,-99.99,,,-99.99,,2013-01-19 05:23:00,
2013-01-19 00:33:00,35.0,-99.9,30.02,SSW,210,28.0,-999.0,-999,-99.99,,,-99.99,,2013-01-19 05:33:00,
2013-01-19 00:43:00,35.0,-99.9,29.99,SSW,210,32.0,44.0,-999,-99.99,,,-99.99,,2013-01-19 05:43:00,
2013-01-19 01:00:00,37.0,-99.9,30.05,SSW,210,24.0,32.0,-999,-99.99,,,-99.99,,2013-01-19 06:00:00,
2013-01-19 01:12:00,36.0,-99.9,30.04,SSW,210,23.0,-999.0,-999,-99.99,,,-99.99,,2013-01-19 06:12:00,
2013-01-19 01:23:00,37.0,-99.9,30.05,SSW,210,24.0,32.0,-999,-99.99,,,-99.99,,2013-01-19 06:23:00,
2013-01-19 01:33:00,37.0,-99.9,30.05,SSW,210,24.0,32.0,-999,-99.99,,,-99.99,,2013-01-19 06:33:00,
2013-01-19 01:43:00,37.0,-99.9,30.05,SSW,210,24.0,32.0,-999,-99.99,,,-99.99,,2013-01-19 06:43:00,
2013-01-19 01:53:00,37.0,-99.9,30.05,SSW,210,24.0,32.0,-999,-99.99,,,-99.99,,2013-01-19 06:53:00,
2013-01-19 02:00:00,37.0,-99.9,30.02,SSW,210,25.0,32.0,-999,-99.99,,,-99.99,,2013-01-19 07:00:00,
2013-01-19 02:23:00,37.0,-99.9,30.02,SSW,210,25.0,32.0,-999,-99.99,,,-99.99,,2013-01-19 07:23:00,
2013-01-19 02:33:00,37.0,-99.9,30.02,SSW,210,25.0,32.0,-999,-99.99,,,-99.99,,2013-01-19 07:33:00,
2013-01-19 02:43:00,37.0,-99.9,30.02,SSW,210,25.0,32.0,-999,-99.99,,,-99.99,,2013-01-19 07:43:00,
2013-01-19 02:53:00,37.0,-99.9,30.02,SSW,210,25.0,32.0,-999,-99.99,,,-99.99,,2013-01-19 07:53:00,
2013-01-19 03:00:00,38.0,-99.9,30.02,SSW,210,29.0,36.0,-999,-99.99,,,-99.99,,2013-01-19 08:00:00,
2013-01-19 03:12:00,37.0,-99.9,30.02,SSW,210,24.0,-999.0,-999,-99.99,,,-99.99,,2013-01-19 08:12:00,
2013-01-19 03:22:00,38.0,-99.9,30.02,SSW,210,29.0,36.0,-999,-99.99,,,-99.99,,2013-01-19 08:22:00,
2013-01-19 03:33:00,38.0,-99.9,30.02,SSW,210,29.0,36.0,-999,-99.99,,,-99.99,,2013-01-19 08:33:00,
2013-01-19 03:43:00,38.0,-99.9,30.02,SSW,210,29.0,36.0,-999,-99.99,,,-99.99,,2013-01-19 08:43:00,
2013-01-19 03:53:00,38.0,-99.9,30.02,SSW,210,29.0,36.0,-999,-99.99,,,-99.99,,2013-01-19 08:53:00,
2013-01-19 04:23:00,38.0,-99.9,30.00,SSW,210,25.0,32.0,-999,-99.99,,,-99.99,,2013-01-19 09:23:00,
2013-01-19 04:33:00,38.0,-99.9,30.00,SSW,210,25.0,32.0,-999,-99.99,,,-99.99,,2013-01-19 09:33:00,
2013-01-19 04:43:00,38.0,-99.9,30.00,SSW,210,24.0,31.0,-999,-99.99,,,-99.99,,2013-01-19 09:43:00,
2013-01-19 04:53:00,38.0,-99.9,30.00,SSW,210,24.0,31.0,-999,-99.99,,,-99.99,,2013-01-19 09:53:00,
2013-01-19 05:02:00,38.0,-99.9,30.00,SSW,210,24.0,31.0,-999,-99.99,,,-99.99,,2013-01-19 10:02:00,
2013-01-19 05:13:00,40.0,-99.9,29.98,SW,220,28.0,-999.0,-999,-99.99,,,-99.99,,2013-01-19 10:13:00,
2013-01-19 05:23:00,39.0,-99.9,29.98,SSW,210,23.0,30.0,-999,-99.99,,,-99.99,,2013-01-19 10:23:00,
2013-01-19 05:33:00,39.0,-99.9,29.98,SSW,210,23.0,30.0,-999,-99.99,,,-99.99,,2013-01-19 10:33:00,
2013-01-19 05:43:00,39.0,-99.9,29.98,SSW,210,23.0,30.0,-999,-99.99,,,-99.99,,2013-01-19 10:43:00,
2013-01-19 05:53:00,39.0,-99.9,29.98,SSW,210,24.0,31.0,-999,-99.99,,,-99.99,,2013-01-19 10:53:00,
2013-01-19 06:03:00,39.0,-99.9,29.98,SSW,210,24.0,31.0,-999,-99.99,,,-99.99,,2013-01-19 11:03:00,
2013-01-19 06:13:00,39.0,-99.9,29.99,SSW,210,24.0,-999.0,-999,-99.99,,,-99.99,,2013-01-19 11:13:00,
2013-01-19 07:49:00,39.0,-99.9,29.99,SSW,210,23.0,30.0,-999,-99.99,,,-99.99,,2013-01-19 12:49:00,
2013-01-19 07:53:00,39.0,-99.9,29.99,SSW,210,23.0,30.0,-999,-99.99,,,-99.99,,2013-01-19 12:53:00,
2013-01-19 08:03:00,39.0,-99.9,29.98,SSW,210,23.0,29.0,-999,-99.99,,,-99.99,,2013-01-19 13:03:00,
2013-01-19 08:13:00,39.0,-99.9,29.99,SSW,210,23.0,-999.0,-999,-99.99,,,-99.99,,2013-01-19 13:13:00,
2013-01-19 08:23:00,39.0,-99.9,29.99,SSW,210,22.0,30.0,-999,-99.99,,,-99.99,,2013-01-19 13:23:00,
2013-01-19 08:34:00,39.0,-99.9,29.99,SSW,210,22.0,30.0,-999,-99.99,,,-99.99,,2013-01-19 13:34:00,
2013-01-19 08:43:00,39.0,-99.9,29.99,SSW,210,22.0,30.0,-999,-99.99,,,-99.99,,2013-01-19 13:43:00,
2013-01-19 08:54:00,39.0,-99.9,29.99,SSW,210,22.0,30.0,-999,-99.99,,,-99.99,,2013-01-19 13:54:00,
2013-01-19 09:00:00,40.0,-99.9,29.98,SSW,210,26.0,32.0,-999,-99.99,,,-99.99,,2013-01-19 14:00:00,
2013-01-19 09:03:00,39.0,-99.9,29.99,SW,220,23.0,29.0,-999,-99.99,,,-99.99,,2013-01-19 14:03:00,
2013-01-19 09:13:00,39.0,-99.9,29.99,SW,220,23.0,29.0,-999,-99.99,,,-99.99,,2013-01-19 14:13:00,
2013-01-19 09:23:00,40.0,-99.9,29.98,SSW,210,26.0,32.0,-999,-99.99,,,-99.99,,2013-01-19 14:23:00,
2013-01-19 09:34:00,40.0,-99.9,29.98,SSW,210,26.0,32.0,-999,-99.99,,,-99.99,,2013-01-19 14:34:00,
2013-01-19 09:43:00,40.0,-99.9,29.98,SSW,210,26.0,32.0,-999,-99.99,,,-99.99,,2013-01-19 14:43:00,
2013-01-19 09:54:00,40.0,-99.9,29.98,SSW,210,26.0,32.0,-999,-99.99,,,-99.99,,2013-01-19 14:54:00,
2013-01-19 10:00:00,42.0,-99.9,30.00,SW,230,26.0,32.0,-999,-99.99,,,-99.99,,2013-01-19 15:00:00,
2013-01-19 10:13:00,42.0,-99.9,30.00,SW,230,22.0,-999.0,-999,-99.99,,,-99.99,,2013-01-19 15:13:00,
2013-01-19 10:23:00,42.0,-99.9,30.00,SW,230,26.0,32.0,-999,-99.99,,,-99.99,,2013-01-19 15:23:00,
2013-01-19 10:34:00,42.0,-99.9,30.00,SW,230,26.0,32.0,-999,-99.99,,,-99.99,,2013-01-19 15:34:00,
2013-01-19 10:43:00,42.0,-99.9,30.00,SW,230,26.0,32.0,-999,-99.99,,,-99.99,,2013-01-19 15:43:00,
2013-01-19 10:54:00,42.0,-99.9,30.00,SW,230,26.0,32.0,-999,-99.99,,,-99.99,,2013-01-19 15:54:00,
2013-01-19 11:23:00,44.0,-99.9,30.01,SW,230,20.0,26.0,-999,-99.99,,,-99.99,,2013-01-19 16:23:00,
2013-01-19 11:34:00,44.0,-99.9,30.01,SW,230,20.0,26.0,-999,-99.99,,,-99.99,,2013-01-19 16:34:00,
2013-01-19 11:43:00,43.0,-99.9,29.99,SW,220,18.0,31.0,-999,-99.99,,,-99.99,,2013-01-19 16:43:00,
2013-01-19 11:54:00,43.0,-99.9,29.99,SW,220,18.0,31.0,-999,-99.99,,,-99.99,,2013-01-19 16:54:00,
2013-01-19 12:00:00,45.0,-99.9,29.97,WSW,240,23.0,26.0,-999,-99.99,,,-99.99,,2013-01-19 17:00:00,
2013-01-19 12:03:00,43.0,-99.9,29.99,SW,220,18.0,31.0,-999,-99.99,,,-99.99,,2013-01-19 17:03:00,
2013-01-19 12:23:00,45.0,-99.9,29.97,WSW,240,18.0,-999.0,-999,-99.99,,,-99.99,,2013-01-19 17:23:00,
2013-01-19 12:29:00,45.0,-99.9,29.97,WSW,240,23.0,26.0,-999,-99.99,,,-99.99,,2013-01-19 17:29:00,
2013-01-19 12:38:00,45.0,-99.9,29.97,WSW,240,23.0,26.0,-999,-99.99,,,-99.99,,2013-01-19 17:38:00,
2013-01-19 12:50:00,45.0,-99.9,29.97,WSW,240,23.0,26.0,-999,-99.99,,,-99.99,,2013-01-19 17:50:00,
2013-01-19 12:56:00,45.0,-99.9,29.97,WSW,240,23.0,26.0,-999,-99.99,,,-99.99,,2013-01-19 17:56:00,
2013-01-19 13:00:00,46.0,-99.9,29.92,SW,220,21.0,26.0,-999,-99.99,,,-99.99,,2013-01-19 18:00:00,
2013-01-19 13:30:00,46.0,-99.9,29.92,SW,220,21.0,26.0,-999,-99.99,,,-99.99,,2013-01-19 18:30:00,
2013-01-19 13:39:00,46.0,-99.9,29.92,SW,220,21.0,26.0,-999,-99.99,,,-99.99,,2013-01-19 18:39:00,
2013-01-19 13:48:00,46.0,-99.9,29.92,SW,220,21.0,26.0,-999,-99.99,,,-99.99,,2013-01-19 18:48:00,
2013-01-19 14:10:00,48.0,-99.9,29.89,SW,230,22.0,29.0,-999,-99.99,,,-99.99,,2013-01-19 19:10:00,
2013-01-19 14:33:00,48.0,-99.9,29.89,SW,220,23.0,29.0,-999,-99.99,,,-99.99,,2013-01-19 19:33:00,
2013-01-19 14:40:00,48.0,-99.9,29.89,SW,220,23.0,29.0,-999,-99.99,,,-99.99,,2013-01-19 19:40:00,
2013-01-19 14:50:00,48.0,-99.9,29.89,SW,230,22.0,29.0,-999,-99.99,,,-99.99,,2013-01-19 19:50:00,
2013-01-19 14:59:00,48.0,-99.9,29.89,SW,230,22.0,29.0,-999,-99.99,,,-99.99,,2013-01-19 19:59:00,
2013-01-19 15:12:00,50.0,-99.9,29.84,SW,220,28.0,31.0,-999,-99.99,,,-99.99,,2013-01-19 20:12:00,
2013-01-19 15:20:00,50.0,-99.9,29.85,SW,220,20.0,-999.0,-999,-99.99,,,-99.99,,2013-01-19 20:20:00,
2013-01-19 15:28:00,50.0,-99.9,29.84,SW,220,23.0,30.0,-999,-99.99,,,-99.99,,2013-01-19 20:28:00,
2013-01-19 15:40:00,50.0,-99.9,29.84,SW,220,23.0,30.0,-999,-99.99,,,-99.99,,2013-01-19 20:40:00,
2013-01-19 15:51:00,50.0,-99.9,29.84,SW,220,28.0,31.0,-999,-99.99,,,-99.99,,2013-01-19 20:51:00,
2013-01-19 16:00:00,50.0,-99.9,29.84,SW,220,28.0,31.0,-999,-99.99,,,-99.99,,2013-01-19 21:00:00,
2013-01-19 16:30:00,51.0,-99.9,29.81,SW,220,16.0,29.0,-999,-99.99,,,-99.99,,2013-01-19 21:30:00,
2013-01-19 16:55:00,51.0,-99.9,29.81,SW,220,16.0,29.0,-999,-99.99,,,-99.99,,2013-01-19 21:55:00,
2013-01-19 17:00:00,51.0,-99.9,29.76,SSW,210,21.0,33.0,-999,-99.99,,,-99.99,,2013-01-19 22:00:00,
2013-01-19 17:03:00,51.0,-99.9,29.78,SSW,210,20.0,30.0,-999,-99.99,,,-99.99,,2013-01-19 22:03:00,
2013-01-19 17:20:00,51.0,-99.9,29.78,SSW,210,20.0,30.0,-999,-99.99,,,-99.99,,2013-01-19 22:20:00,
2013-01-19 17:29:00,51.0,-99.9,29.76,SSW,210,21.0,33.0,-999,-99.99,,,-99.99,,2013-01-19 22:29:00,
2013-01-19 17:49:00,51.0,-99.9,29.76,SSW,210,21.0,33.0,-999,-99.99,,,-99.99,,2013-01-19 22:49:00,
2013-01-19 17:59:00,51.0,-99.9,29.76,SSW,210,21.0,33.0,-999,-99.99,,,-99.99,,2013-01-19 22:59:00,
2013-01-19 18:00:00,50.0,-99.9,29.78,SW,230,21.0,30.0,-999,-99.99,,,-99.99,,2013-01-19 23:00:00,
2013-01-19 18:29:00,50.0,-99.9,29.78,SW,230,21.0,30.0,-999,-99.99,,,-99.99,,2013-01-19 23:29:00,
2013-01-19 18:35:00,50.0,-99.9,29.78,SW,230,21.0,30.0,-999,-99.99,,,-99.99,,2013-01-19 23:35:00,
2013-01-19 18:53:00,50.0,-99.9,29.78,SW,230,21.0,30.0,-999,-99.99,,,-99.99,,2013-01-19 23:53:00,
2013-01-19 19:00:00,50.0,-99.9,29.77,SW,220,18.0,22.0,-999,-99.99,,,-99.99,,2013-01-20 00:00:00,
2013-01-19 19:26:00,50.0,-99.9,29.77,SW,220,18.0,22.0,-999,-99.99,,,-99.99,,2013-01-20 00:26:00,
2013-01-19 19:39:00,50.0,-99.9,29.77,SW,220,18.0,22.0,-999,-99.99,,,-99.99,,2013-01-20 00:39:00,
2013-01-19 19:48:00,50.0,-99.9,29.77,SW,220,18.0,22.0,-999,-99.99,,,-99.99,,2013-01-20 00:48:00,
2013-01-19 19:59:00,50.0,-99.9,29.77,SW,220,18.0,22.0,-999,-99.99,,,-99.99,,2013-01-20 00:59:00,
2013-01-19 20:00:00,49.0,-99.9,29.77,SW,220,16.0,21.0,-999,-99.99,,,-99.99,,2013-01-20 01:00:00,
2013-01-19 20:28:00,49.0,-99.9,29.77,SW,220,16.0,21.0,-999,-99.99,,,-99.99,,2013-01-20 01:28:00,
2013-01-19 20:39:00,49.0,-99.9,29.77,SW,220,16.0,21.0,-999,-99.99,,,-99.99,,2013-01-20 01:39:00,
2013-01-19 21:00:00,50.0,-99.9,29.73,SW,230,21.0,31.0,-999,-99.99,,,-99.99,,2013-01-20 02:00:00,
2013-01-19 21:39:00,50.0,-99.9,29.73,SW,230,21.0,31.0,-999,-99.99,,,-99.99,,2013-01-20 02:39:00,
2013-01-19 22:00:00,49.0,-99.9,29.69,SW,230,29.0,39.0,-999,-99.99,,,-99.99,,2013-01-20 03:00:00,
2013-01-19 22:27:00,49.0,-99.9,29.69,SW,230,29.0,39.0,-999,-99.99,,,-99.99,,2013-01-20 03:27:00,
2013-01-19 22:40:00,49.0,-99.9,29.69,SW,230,29.0,39.0,-999,-99.99,,,-99.99,,2013-01-20 03:40:00,
2013-01-19 22:48:00,49.0,-99.9,29.69,SW,230,29.0,39.0,-999,-99.99,,,-99.99,,2013-01-20 03:48:00,
2013-01-19 22:59:00,49.0,-99.9,29.69,SW,230,29.0,39.0,-999,-99.99,,,-99.99,,2013-01-20 03:59:00,
2013-01-19 23:00:00,49.0,-99.9,29.67,SW,230,25.0,37.0,-999,-99.99,,,-99.99,,2013-01-20 04:00:00,
2013-01-19 23:28:00,49.0,-99.9,29.67,SW,230,25.0,37.0,-999,-99.99,,,-99.99,,2013-01-20 04:28:00,
2013-01-19 23:39:00,49.0,-99.9,29.67,SW,230,25.0,37.0,-999,-99.99,,,-99.99,,2013-01-20 04:39:00,
2013-01-19 23:45:00,49.0,-99.9,29.67,SW,230,25.0,37.0,-999,-99.99,,,-99.99,,2013-01-20 04:45:00,